CARTOSAT-2F

Last updated on Thu Oct 30 2025 00:02:32 GMT+0000 (Coordinated Universal Time)

1 43111U 18004A 25302.48790169 .00007046 00000+0 33759-3 0 9995 2 43111 97.4376 0.8241 0001346 4.3477 355.7769 15.19232039432301
UTC large
Height (km)
Speed (km/s)
/
Latitude / Longitude
Inclination (degrees)
Orbital Period (minutes)
Azimuth
Elevation
Range (km)
Doppler Factor

Next 0 passes for location: London (51.5072 / 0.1276)

Sorry there are no passes over London.